Regional Weather Roundup
Issued by NWS

Home | Current Version | Previous Version | Graphics & Text | Print | Product List | Glossary On
Versions: 1 2 3 4 5 6 7 8 9 10 11 12 13 14 15 16 17 18 19 20 21 22 23 24 25 26 27 28 29 30 31 32 33 34 35 36 37 38 39 40 41 42 43 44 45 46 47 48 49 50
000
ASUS45 KTFX 060210
RWRMT
MONTANA REGIONAL WEATHER ROUNDUP
NATIONAL WEATHER SERVICE GREAT FALLS MT
800 PM MDT SUN JUL 05 2015

NOTE: "FAIR" INDICATES FEW OR NO CLOUDS BELOW 12000 FEET WITH NO
SIGNIFICANT WEATHER AND/OR OBSTRUCTIONS TO VISIBILITY.

MTZ001>007-043-060300-
WEST OF THE DIVIDE

CITY           SKY/WX    TMP DP  RH WIND       PRES   REMARKS
KALISPELL      CLEAR     66  40  38 N16       30.13S
MISSOULA       MOSUNNY   68  46  45 N22G28    30.07R
BUTTE          CLOUDY    62  47  57 N10       30.17R
MULLAN PASS    SUNNY     61  47  59 VRB3      30.16R
DEER LODGE       N/A     55  46  71 N15       30.22R
EUREKA           N/A     72  37  28 NE10G18   30.12R
HAMILTON         N/A     72  50  46 N10       30.03R
LIBBY            N/A     72  43  35 E6        30.10R
PLAINS           N/A     76  45  33 NE12      30.08R
THOMPSON FALLS   N/A     73  44  35 NE15      30.07R
$$

MTZ008-052>055-060300-
SOUTHWEST MONTANA

CITY           SKY/WX    TMP DP  RH WIND       PRES   REMARKS
BOZEMAN        CLOUDY    59  53  80 S9        30.16R
DILLON         HVY RAIN  56  51  84 N18       30.15R
W YELLOWSTONE  PTSUNNY   68  50  52 SW12      30.14R
THREE FORKS      N/A     62  55  77 N5        30.14
$$

MTZ009-010-012-014-046-048-049-054-060300-
EAST SLOPES AND CENTRAL MONTANA

CITY           SKY/WX    TMP DP  RH WIND       PRES   REMARKS
CUT BANK       CLOUDY    55  47  74 NW7       30.24S
GREAT FALLS    LGT RAIN  50  48  93 N9        30.24R FOG
MALMSTROM AFB  LGT RAIN  52  50  93 NW8       30.25R
HELENA         CLOUDY    54  49  83 N6        30.20R
CONRAD           N/A     54  54 100 W3        30.25R
$$

MTZ011-013-016-021-045-047-050-051-060300-
NORTH CENTRAL MONTANA

CITY           SKY/WX    TMP DP  RH WIND       PRES   REMARKS
HAVRE          CLOUDY    60  51  72 MISG      30.18R
LEWISTOWN      CLOUDY    52  49  89 N3        30.21R
CHINOOK          N/A     61  48  63 W5        30.17S
FORT BENTON      N/A     55  50  82 SW3       30.23R
$$

MTZ017>020-022>027-061-062-060300-
NORTHEAST MONTANA

CITY           SKY/WX    TMP DP  RH WIND       PRES   REMARKS
GLASGOW        MOCLDY    65  53  65 W13       30.09S
JORDAN           N/A     59  56  89 W8        30.13R
SIDNEY         CLOUDY    70  48  46 NW8       30.05R
WOLF POINT     CLOUDY    68  50  52 NW8       30.07S
PLENTYWOOD       N/A     64  48  55 N8        30.06R
POPLAR           N/A     66  54  63 W6        30.07S
SCOBEY           N/A     66  45  46 NW7       30.07R
$$

MTZ028>42-056>058-060300-
SOUTHCENTRAL AND SOUTHEAST MONTANA

CITY           SKY/WX    TMP DP  RH WIND       PRES   REMARKS
BAKER          CLOUDY    66  56  70 N6        30.08R HAZE
BILLINGS       CLOUDY    60  51  72 NE12      30.16R
LIVINGSTON     CLOUDY    56  50  80 E15       30.19R HAZE
MILES CITY     CLOUDY    67  47  48 N18       30.10R
EKALAKA          N/A     62  53  72 CALM      30.07S
FORSYTH          N/A     61  50  67 N9        30.12R
LAUREL           N/A     58  48  69 CALM      30.14R
ROUNDUP          N/A     56  45  66 CALM      30.09R
$$

REGIONAL REPORTS...DAKOTAS

CITY           SKY/WX    TMP DP  RH WIND       PRES   REMARKS
WILLISTON      CLOUDY    71  49  45 N9        30.03S
MINOT          CLOUDY    67  55  65 NW9       29.97R HAZE
DICKINSON      CLOUDY    66  56  70 N5        30.03R HAZE
BEACH          MOCLDY    63  55  77 N6        30.08R
CROSBY         FAIR      63  55  77 NW9       30.04R
BISMARCK       CLOUDY    71  62  73 NW7       29.97R HAZE
GRAND FORKS    MOCLDY    69  62  78 N10       29.85R HAZE
FARGO          MOCLDY    73  66  78 N16       29.79F
BUFFALO SD       N/A     63  55  75 N10       30.00F
RAPID CITY     CLOUDY    62  60  93 N22G33    30.02R
$$

REGIONAL REPORTS...WYOMING/IDAHO/WASHINGTON

CITY           SKY/WX    TMP DP  RH WIND       PRES   REMARKS
GILLETTE       LGT RAIN  56  55  97 N12       30.13R FOG
SHERIDAN       CLOUDY    57  53  86 NW5       30.16R FOG
BUFFALO WY     CLOUDY    54  53  97 N12       30.18R FOG
CODY           CLOUDY    54  52  94 N8        30.17S
YELLOWSTONE LA   N/A     59  45  59 VRB3      30.25R
IDAHO FALLS    LGT RAIN  68  56  65 W17G23    30.02R
SALMON         CLOUDY    81  48  32 E10       29.93R
BOISE          PTSUNNY   80  52  37 S9        29.93F
SPOKANE        MOSUNNY   84  41  21 NE16      29.94R
$$

REGIONAL REPORTS...ALBERTA

CITY           SKY/WX    TMP DP  RH WIND       PRES   REMARKS
EDMONTON       SUNNY     64  37  36 NW7       30.15F
CALGARY        MOSUNNY   59  43  55 NE10G22   30.22S
LETHBRIDGE     PTSUNNY   61  45  55 E3        30.22R
MEDICINE HAT   CLOUDY    63  45  51 NW12      30.17R
WATERTON GATE    N/A     57  43  58 W2          N/A
MILK RIVER       N/A     57  46  67 N3          N/A
ONEFOUR          N/A     59  50  72 W13         N/A
$$

REGIONAL REPORTS...SASKATCHEWAN

CITY           SKY/WX    TMP DP  RH WIND       PRES   REMARKS
SWIFT CURRENT  CLOUDY    59  46  63 NW8       30.12R
REGINA         MOCLDY    63  50  63 N14       30.06R
SASKATOON      PTSUNNY   61  45  55 NE9       30.11R
CYPRESS HILLS    N/A     54  45  71 N3          N/A
VAL MARIE        N/A     61  46  59 NW9         N/A
ROCKGLEN         N/A     61  46  59 NW8         N/A
ASSINIBOIA       N/A     64  39  39 N5          N/A
$$


USA.gov is the U.S. government's official web portal to all federal, state and local government web resources and services.